Terminal Aerodrome Forecast
Issued by NWS

Home | Current Version | Previous Version | Text Only | Print | Product List | Glossary On
Versions: 1 2 3 4 5 6 7 8 9 10 11 12 13 14 15 16 17 18 19 20 21 22 23 24 25 26 27 28 29 30 31 32
000
FTAK31 PAFA 021120
TAFAUN
TAF
PAUN 021120Z 0212/0312 08008KT P6SM BKN200
     FM021400 09013KT P6SM OVC200
     FM030900 13010KT P6SM VCSH BKN040 OVC070=

USA.gov is the U.S. government's official web portal to all federal, state and local government web resources and services.